Location: Trout Lake
(45.9980°N, 121.5270°W)
Time: 20:32:22
(UTC-08:00)

Daily predictions for brighter satellites

Satellite Brightness Start Highest point End
(mag) Time Altitude Azimuth Time Altitude Azimuth Time Altitude Azimuth
Cosmos 2322 4.0 18:10:34 10° NNW 18:16:05 47° ENE 18:21:34 10° SE
Gbstr 26 Del rocket 4.4 18:13:56 10° S 18:16:30 17° SE 18:19:01 10° E
Cosmos 1975 Rocket 4.1 18:12:20 10° NNW 18:16:31 51° W 18:20:42 10° S
NOSS 2-2 (D) 4.3 18:12:58 10° SW 18:17:02 55° NW 18:21:54 10° NNE
Cosmos 1745 Rocket 4.1 18:10:44 10° S 18:17:04 89° E 18:23:22 10° N
SKYMED 2 3.6 18:16:07 10° NNE 18:20:30 83° ESE 18:24:50 10° SSW
ATLAS CENTAUR R/B 4.0 18:18:21 10° WNW 18:20:41 14° NNW 18:22:57 10° N
NOAA 12 4.1 18:16:35 10° SSE 18:21:50 64° ENE 18:27:08 10° N
Cosmos 1386 Rocket 4.4 18:16:29 10° S 18:22:33 76° E 18:28:35 10° NNE
Meteor 1-13 Rocket 4.4 18:20:44 10° N 18:26:08 50° ENE 18:31:34 10° SSE
H-2A R/B 4.0 18:24:53 10° ESE 18:27:40 21° ENE 18:30:30 10° NNE
Cosmos 1536 4.1 18:25:10 10° SE 18:28:00 19° E 18:30:51 10° NE
Cosmos 1812 3.4 18:25:46 10° NNW 18:29:35 61° W 18:33:22 10° S
Okean 1 3.3 18:25:49 10° N 18:29:54 85° E 18:33:58 10° S
Cosmos 1633 3.2 18:27:26 10° SSE 18:30:48 35° E 18:34:12 10° NNE
COSMOS 2428 3.4 18:26:12 10° NNW 18:31:24 35° NE 18:36:34 10° ESE
METEOR-M 4.1 18:27:42 10° SSE 18:33:01 78° ENE 18:38:23 10° NNW
Cosmos 2237 Rocket 3.8 18:31:05 10° N 18:34:42 17° NE 18:37:45 12° ENE
Meteor 2-4 Rocket 4.2 18:29:33 10° N 18:34:43 37° ENE 18:39:44 10° SE
Cosmos 1536 Rocket 3.5 18:31:01 10° N 18:35:31 80° E 18:40:00 10° SSE
ASTRO F (AKARI) 4.4 18:31:59 10° NNE 18:35:37 78° ESE 18:39:01 10° S
Cosmos 1818 3.6 18:42:40 10° SW 18:48:07 90° SE 18:53:37 10° NE
Cosmos 407 Rocket 3.8 18:43:23 10° SSW 18:48:37 71° WNW 18:53:57 10° NNE
Cosmos 2360 Rocket 2.2 18:44:51 10° NNW 18:50:33 89° WSW 18:56:13 10° SSE
Cosmos 2219 Rocket 3.0 18:47:08 10° N 18:52:02 30° NE 18:55:22 17° E
Cosmos 676 Rocket 4.0 18:48:06 10° SSW 18:53:17 90° WSW 18:58:34 10° NNE
Cosmos 2219 3.9 18:49:46 10° SSE 18:54:46 32° ESE 18:59:47 10° NE
Cosmos 1570 Rocket 4.0 18:52:42 10° NNW 18:57:53 59° ENE 19:03:02 10° SE
Cosmos 1602 3.6 18:57:15 10° S 19:01:06 79° E 19:05:02 10° N
Abrixas rocket 4.3 19:00:42 10° S 19:02:26 15° SE 19:02:26 15° SE
Meteor 1-11 Rocket 3.7 18:59:26 10° S 19:05:12 71° E 19:11:07 10° NNE
Resurs 01 Rocket 1.5 19:01:14 10° SSE 19:05:35 66° ENE 19:09:59 10° N
Cosmos 1300 Rocket 3.5 19:01:51 10° S 19:06:16 83° E 19:10:43 10° N
Cosmos 1140 Rocket 3.4 19:02:41 10° SSW 19:07:48 76° ESE 19:12:58 10° NNE
SL-16 R/B 3.9 19:05:01 10° N 19:08:04 14° NE 19:09:14 14° NE
COSMO-SKYMED 1 4.5 19:04:31 10° N 19:08:24 32° WNW 19:12:16 10° SW
FREGAT/IRIS 4.1 19:08:21 10° S 19:11:18 40° W 19:14:15 10° NNW
Spot 1 4.3 19:10:05 20° SE 19:12:33 43° ENE 19:16:30 10° N
Cosmos 1340 4.0 19:11:44 10° NNW 19:15:21 42° W 19:18:55 10° SSW
Cosmos 614 Rocket 3.8 19:10:19 10° S 19:15:21 67° ESE 19:20:24 10° NNE
ALOS 2.4 19:10:50 10° S 19:15:30 78° WSW 19:20:12 10° NNW
Helios 1A 3.1 19:17:34 23° SE 19:19:50 49° ENE 19:23:52 10° N
Cosmos 1833 4.4 19:16:11 10° SSW 19:21:53 75° WNW 19:27:32 10° NNE
Resurs 1-3 3.5 19:18:45 10° SSE 19:23:08 83° ENE 19:27:32 10° NNW
Spot 2 Rocket 3.4 19:18:06 10° SSE 19:23:09 89° WSW 19:28:16 10° NNW
Cosmos 2327 Rocket 4.5 19:18:38 10° S 19:24:43 59° E 19:30:56 10° NNE
Cosmos 2208 Rocket 4.0 19:19:33 10° NNW 19:25:03 89° ENE 19:30:27 10° SSE
USA 186 3.4 19:27:24 21° NNE 19:27:24 21° NNE 19:28:36 10° N
Cosmos 2333 Rocket 2.6 19:20:52 10° NNW 19:26:20 42° NE 19:28:17 32° E
Helios 1B rocket 3.2 19:25:40 10° NNE 19:30:52 33° SE 19:33:36 10° S
Okean 2 3.4 19:29:19 10° N 19:33:26 59° ENE 19:34:27 44° SE
Cosmos 1980 4.2 19:28:37 10° NNW 19:33:55 39° NE 19:35:02 36° E
Cosmos 1850 Rocket 3.9 19:30:14 10° SSW 19:35:32 84° ESE 19:40:55 10° NNE
SAR-Lupe-1 3.9 19:34:56 54° SSE 19:35:40 77° ENE 19:39:15 10° N
Cosmos 1814 Rocket 4.5 19:30:53 10° N 19:35:42 37° ENE 19:36:05 37° ENE
Genesis I 3.9 19:32:17 10° NW 19:36:09 53° WSW 19:38:11 25° S
USA 229 DEB 3.7 19:30:23 10° NW 19:37:32 82° NE 19:42:03 25° SE
USA 229 3.7 19:30:29 10° NW 19:37:38 82° NE 19:42:06 26° SE
Envisat 3.3 19:38:53 42° E 19:39:33 45° ENE 19:44:22 10° N
SAR-Lupe-4 3.6 19:39:06 34° S 19:40:32 78° WSW 19:44:08 10° NNW
Okean 1 Rocket 3.8 19:36:59 10° SSW 19:41:23 56° WNW 19:45:49 10° N
Cosmos 1892 Rocket 3.5 19:39:24 10° N 19:43:42 59° ENE 19:43:44 59° E
Cosmos 2074 Rocket 3.9 19:37:54 10° S 19:44:10 86° E 19:50:29 10° N
ERS-1 Rocket 3.9 19:45:24 30° NE 19:45:24 30° NE 19:48:55 10° N
Cosmos 2184 Rocket 3.9 19:40:58 10° S 19:47:17 88° E 19:53:35 10° N
NOSS 3-1 (A) 4.4 19:42:57 10° NNW 19:49:59 46° NE 19:52:26 37° E
USA 215 4.4 19:47:09 19° NE 19:51:04 34° N 19:56:49 10° WNW
Meteor 1-5 Rocket 4.2 19:46:03 10° S 19:52:02 88° E 19:57:58 10° NNE
ATLAS 2AS CENTAUR R/B 4.2 19:48:13 10° NW 19:54:57 27° NNE 19:57:44 23° NE
Cosmos 405 Rocket 2.9 19:52:00 10° N 19:55:33 65° N 19:55:33 65° N
CZ-2D R/B 4.1 19:54:14 19° SSW 19:56:42 48° W 20:00:25 10° NNW
Cosmos 1025 Rocket 3.8 19:53:52 10° NNW 19:58:08 51° W 20:02:22 10° S
Cosmos 1939 Rocket 4.5 20:00:51 24° N 20:00:51 24° N 20:02:37 10° N
H-2A R/B 4.5 19:58:27 10° SSW 20:01:47 31° W 20:05:10 10° NNW
H-2A R/B 4.3 20:05:00 12° NNE 20:05:00 12° NNE 20:05:37 10° NNE
Gbstr 26 Del rocket 3.2 19:59:07 10° WSW 20:02:05 54° WSW 20:02:05 54° WSW
Cosmos 1536 4.4 20:00:32 10° SW 20:04:12 35° WNW 20:07:54 10° N
Nadezhda 3 Rocket 3.8 19:58:09 10° N 20:04:19 72° E 20:06:14 46° SSE
GEOS 3 Rocket 3.8 20:01:57 25° NNE 20:05:04 71° NW 20:10:19 10° SW
NOSS 3-1 (C) 4.0 20:02:22 10° NW 20:09:44 67° NE 20:11:48 50° ESE
Cosmos 2341 Rocket 4.3 20:11:39 49° NE 20:11:39 49° NE 20:16:45 10° NNE
Cosmos 2285 Rocket 4.4 20:07:10 10° NNW 20:13:32 63° WSW 20:17:44 22° S
COSMOS 2428 3.8 20:10:26 10° NW 20:15:45 42° WSW 20:19:51 16° S
Cosmos 2154 Rocket 3.9 20:09:56 10° S 20:16:16 79° E 20:22:37 10° N
Cosmos 2237 Rocket 2.1 20:14:02 10° NNW 20:19:36 76° NE 20:19:36 76° NE
Cosmos 1066 Rocket 4.4 20:14:19 10° N 20:19:01 56° NNE 20:19:01 56° NNE
Meteor 2-13 Rocket 4.5 20:14:41 10° SSW 20:20:45 78° W 20:26:53 10° N
Cosmos 841 Rocket 4.4 20:17:47 10° NNW 20:21:09 37° N 20:21:09 37° N
NOSS 0 Rocket 4.2 20:29:35 10° NNW 20:35:40 64° WSW 20:36:31 58° SSW
Cosmos 1763 Rocket 4.2 20:31:01 10° NNW 20:34:33 45° NNW 20:34:33 45° NNW
Cosmos 2219 Rocket 2.8 20:30:50 10° NW 20:36:14 50° WSW 20:37:08 45° SW
Cosmos 2219 4.2 20:33:16 10° SW 20:38:45 45° WNW 20:44:16 10° NNE
SL-16 R/B 3.3 20:47:43 10° NNW 20:51:08 36° N 20:51:08 36° N
Cosmos 2333 Rocket 3.6 21:05:22 10° NW 21:10:20 34° WSW 21:10:20 34° WSW
USA 215 4.4 21:34:29 36° NNW 21:34:29 36° NNW 21:39:08 10° NW
ATLAS 2AS CENTAUR R/B 3.8 21:39:35 10° NW 21:45:11 45° NNW 21:45:11 45° NNW
